Location: DARK SKY Beskydy - Park tmavé oblohy, www.darkskybeskydy.cz
(49.4926°N, 18.5016°E)
Time: 10:58:48
(UTC+02:00)

Transit 4A - Pass Details

Date: 29 February 2024
Orbit: 871 x 971 km, 66.8° (Epoch: 24 April)

Event Time Altitude Azimuth Distance (km) Brightness Sun altitude
Exits shadow 05:36:13 - 316° (NW) 3,475 10.5 -9.5°
Reaches altitude 10° 05:39:36 10° 336° (NNW) 2,571 10.0 -9.0°
Maximum altitude 05:43:16 16° 14° (NNE) 2,127 10.0 -8.4°
Drops below altitude 10° 05:46:53 10° 53° (NE) 2,539 11.0 -7.8°
Sets 05:50:23 0° 74° (ENE) 3,467 12.5 -7.2°
